Regional Weather Roundup
Issued by NWS Midland/Odessa, TX

Skip options and go directly to product.
Home | Oldest Version | Previous Version | Current Version | All | Graphics & Text | Save Text | Print | Product List | Glossary On

Skip product version selection by date and time.   
232
ASUS44 KMAF 310001
RWRMAF
MIDLAND AREA WEATHER ROUNDUP
NATIONAL WEATHER SERVICE MIDLAND TX
700 PM CDT MON MAY 30 2016

...IN SOUTHWEST TEXAS AND SOUTHEAST NEW MEXICO...

CITY           SKY/WX    TMP DP  RH WIND       PRES   REMARKS
ALPINE         PTSUNNY   76  53  44 E6        30.06S
ANDREWS        FAIR      88  54  31 S10G17    29.90F
ARTESIA        CLOUDY    79  55  44 SW10      29.94R THUNDER
BIG SPRING     CLOUDY    69  63  83 SE9G25    29.92S THUNDER
CARLSBAD       PTSUNNY   76  57  51 SE6       29.89F
DRYDEN           N/A     77  68  73 E16       29.91S
FORT STOCKTON  NOT AVBL
GUAD PASS      NOT AVBL
HOBBS          MOSUNNY   81  54  39 S9G16     29.93F
MARFA          SUNNY     75  53  46 NE10      30.02F
MIDLAND AIRPK  CLOUDY    82  58  43 E12       29.87F THUNDER
MIDLAND INTL   MOSUNNY   88  60  38 S22       29.87F
ODESSA         MOSUNNY   88  58  36 S20       29.89F
PECOS          CLOUDY    87  52  30 S16G23    29.88R
PRESIDIO       TSTM      79  58  48 SE15G23   29.89R
SEMINOLE       CLOUDY    86  50  29 S10       29.92F
SNYDER           N/A     85  65  51 E15       29.87F
WINK           CLOUDY    88  51  28 S10       29.86S
$$
...OTHER STATIONS IN TEXAS...

CITY           SKY/WX    TMP DP  RH WIND       PRES   REMARKS
ABILENE        CLOUDY    82  69  64 S10       29.89F
AMARILLO       SUNNY     78  59  51 S17       29.93F
AUSTIN         MOSUNNY   85  69  58 S8        29.90R
BROWNSVILLE    MOSUNNY   82  74  76 SE14      29.88S
CORPUS CHRISTI CLOUDY    84  72  67 S12       29.86R
DALLAS FTW     MOSUNNY   83  61  47 CALM      29.88F
DEL RIO        CLOUDY    81  66  60 S16       29.86F
EL PASO        PTSUNNY   83  40  21 E6        29.92S
HOUSTON INT    MOSUNNY   82  71  69 SE10      29.90F
LUBBOCK        CLOUDY    80  65  59 SE16      29.90F
SAN ANGELO     CLOUDY    82  67  60 S12       29.90F
SAN ANTONIO    PTSUNNY   84  64  50 CALM      29.90F
WACO           SUNNY     84  65  52 SE8       29.89S
WICHITA FALLS  NOT AVBL
$$
...OTHER LOCATIONS IN NEW MEXICO...

CITY           SKY/WX    TMP DP  RH WIND       PRES   REMARKS
ALAMAGORDO     CLOUDY    75  43  31 S22G31    29.96F
ALBUQUERQUE    PTSUNNY   77  31  18 SW23G36   29.97R
CANNON AFB     CLOUDY    85  49  29 S13       29.91F
CLOVIS         SUNNY     82  48  30 S12       29.92F
HOLLOMAN AFB   CLOUDY    79  44  28 SE24      29.93S
ROSWELL        CLOUDY    80  50  34 S21       29.93R
RUIDOSO          N/A     63  36  36 SW28G40   30.14R
SANTA FE       CLOUDY    79   9   7 W9        30.00F
TRUTH OR CONSE PTSUNNY   79  36  21 S14       29.94F
TUCUMCARI      SUNNY     88  31  13 S10G22    29.87F
$$

USA.gov is the U.S. government's official web portal to all federal, state and local government web resources and services.